{"data":{"norad_id":53679,"intl_designator":"2022-105AH","name":"STARLINK-4632","alt_names":[],"object_type":"PAYLOAD","status":"ACTIVE","operator":null,"country":"US","launch_date":"2022-08-31","launch_site_code":"AFWTR","launch_vehicle":null,"mission":null,"orbit_class":"UNKNOWN","rcs_meters":null,"size_class":null,"mass_kg":null,"dimensions":null,"purposes":["comms"],"wikipedia_slug":null,"has_3d_model":false,"image_url":null,"decayed_at":null,"tle_current":{"epoch":"2026-05-25T03:34:48.809856Z","epoch_age_seconds":55376,"freshness":"FRESH","line1":"1 53679U 22105AH  26145.14917604 -.00000730  00000+0 -46554-4 0  9999","line2":"2 53679  97.4504  26.2890 0002170  94.8758 265.2717 15.05659048204817","mean_motion":15.05659048,"eccentricity":0.000217,"inclination_deg":97.4504,"raan_deg":26.289,"arg_perigee_deg":94.8758,"mean_anomaly_deg":265.2717,"bstar":-4.6554e-5,"rev_number":20481,"period_min":95.63918218489,"perigee_km":547.98010670826,"apogee_km":550.986693962,"semimajor_km":6927.6204003351,"source":"CELESTRAK","updated_at":"2026-05-25T13:38:17.521149Z"}}}